STARLINK-11265, 60909

Orbit data source: Space-Track

STARLINK-11265, 60909 is a payload satellite owned by SpaceX/Seattle (US) in LEO that was launched on Sat, 31 Aug 2024 UTC via an FALCON 9 launch vehicle from the Air Force Eastern Test Range (AFETR). Payload-class satellites include a variety of spacecraft equipped with specific instruments for various scientific and technological missions. These include communications satellites like Starlink; space stations such as the ISS; scientific satellites like the Hubble; Earth observation satellites from companies like Planet Labs, Umbra, and HawkEye 360; GPS; miniature CubeSats for education and research; and military/defense satellites.

Loading next visibility...
Identifier
60909, 2024-154G
Orbit
LEO
Country
Flag of USUS
Related business
Manufacturer
SpaceX/Seattle
Mission
Operational Commercial Communications
Bus & Motor
STARLINK V2MD, Unknown motor
Mass
960 kg wet, ~910 kg dry
Launch date (UTC)
2024-08-31 (2 years ago)
Launch vehicle
FALCON 9
Launch site
Air Force Eastern Test Range (AFETR)
Object type
Payload
Rocket body
Debris
Shape & HBR
Box + 2 Pan, 18.1 m
Radar Cross Section
36.964 m², Large (>1 m²)

Expand to show TLE details & history
Last TLE update: 1 day ago

TLE from 1 day ago
0 STARLINK-11265
1 60909U 24154G   26129.45717963 -.00002448  00000-0 -15367-4 0  9998
2 60909  53.1593 192.0669 0001042  73.2027 286.9105 15.69691690 98058
Epoch: 2026-05-09T10:58Z
TLE epoch observation values (Epoch: 2026-05-09T10:58:20.320Z)
Latitude
-0.00001°
Longitude
160.20789°
Altitude
360.49 km
Speed
7.694 km/s
True Right ascension
12h 48m 16s
True Declination
0° 00' 00"
Sunlit
Object was in full shadow at epoch
Visualization orbit readout
Latitude
Unknown
Longitude
Unknown
Altitude
Unknown
Speed
Unknown
Apparent Right ascension
Unknown
Apparent Declination
Unknown
Sunlit
N/A
Visualization observer readout
Local Sidereal Time
19:50:56
Azimuth
Unknown
Elevation
Unknown
Doppler factor
Unknown
Orbital elements
Apogee altitude
360.742 km
Perigee altitude
359.338 km
Semi-major axis
6,738.177 km
Eccentricity
0.0001
Inclination
53.1593°
RAAN
192.0669°
Arg. of periapsis
73.2027°
True anomaly
286.89908°
Mean anomaly
286.9105°
Eccentric anomaly
286.90479°
Mean motion
3.92401 °/min
Orbital period
91.74 mins
BSTAR
-0.000015367
Loading maneuver chart data...
Computing Atmospheric mass density...
Loading historical data...
Loading historical data...
Loading historical data...
Loading historical data...
Loading historical data...
Loading historical data...
Loading historical data...

Documentation

Showing up to 5 results
|